Back to catalog

SL-12 DEB

LostHEO
NORAD 42980·DEBRIS·🇷🇺 Russia

Launched Sep 2, 2010 from Baikonur Cosmodrome

Loading…

Next Passes (next 24 hours)

TLE

StaleSource: Space-Track

Epoch: Mar 19, 2022, 02:34 UTC

1 42980U 10041V   22078.10730332  .00095329  00000-0  64729-1 0  9994
2 42980  65.0488 314.6576 5646308   4.8551 358.9748  4.48700594 69755

Track SL-12 DEB in real time with AllMySat

Download on the App Store